Regional Weather Roundup
Issued by NWS

Home | Current Version | Previous Version | Graphics & Text | Print | Product List | Glossary Off
Versions: 1 2 3 4 5 6 7 8 9 10 11 12 13 14 15 16 17 18 19 20 21 22 23 24 25 26 27 28 29 30 31 32 33 34 35 36 37 38 39 40 41 42 43 44 45 46 47 48 49 50

000
ASUS43 KMPX 030810
RWRMN
WEATHER ROUNDUP FOR MINNESOTA
NATIONAL WEATHER SERVICE TWIN CITIES/CHANHASSEN MN
300 AM CDT MON AUG 03 2015


NOTE: "FAIR" INDICATES FEW OR NO CLOUDS BELOW 12,000 FEET WITH NO
SIGNIFICANT WEATHER AND/OR OBSTRUCTIONS TO VISIBILITY. N/A MEANS
CURRENT SKY AND/OR WEATHER CONDITIONS ARE NOT AVAILABLE.

MNZ060>063-068>070-030900-
   Twin Cities Metro

CITY           SKY/WX    TMP DP  RH WIND       PRES   REMARKS
TWIN CITIES    CLEAR     63  50  62 W5        29.87S
ST PAUL        CLEAR     63  50  62 W3        29.86F
CRYSTAL        CLEAR     61  51  70 W6        29.85F
BLAINE         CLEAR     61  52  72 W5        29.86F
LAKEVILLE      CLEAR     57  54  88 CALM      29.88S
EDEN PRAIRIE   CLEAR     61  52  72 W6        29.87S
SOUTH ST PAUL  CLEAR     63  50  62 CALM      29.87S
LAKE ELMO      FAIR      59  52  77 W3        29.87S
$$
MNZ001>005-007-008-013>017-022>024-027-028-030900-
   Northwest Minnesota

CITY           SKY/WX    TMP DP  RH WIND       PRES   REMARKS
BEMIDJI        CLEAR     54  46  74 W8        29.85S
HALLOCK        CLEAR     54  48  82 NW5       29.86F
ROSEAU         PTCLDY    55  50  82 W9        29.84R
WARROAD        PTCLDY    54  48  82 W6        29.83R
THIEF RVR FALL CLEAR     54  48  82 W6        29.87F
CROOKSTON      CLEAR     52  48  87 NW3       29.88S
FOSSTON        CLEAR     45  39  81 CALM      29.88S
DETROIT LAKES  CLEAR     55  50  82 NW5       29.90S
MOORHEAD       CLEAR     54  48  82 NW6       29.90S
PARK RAPIDS    CLEAR     51  47  86 CALM      29.88R
MAHNOMEN       FAIR      53  49  88 CALM      29.88S
$$
MNZ006-009>011-018-025>026-030900-
   North Central Minnesota

CITY           SKY/WX    TMP DP  RH WIND       PRES   REMARKS
BAUDETTE       MOCLDY    61  49  64 NW17G24   29.79S
FLAG ISLAND    MOCLDY    59  54  82 NW17G23   29.79R
INTL FALLS     CLOUDY    57  49  74 W6        29.76S
WASKISH        PTCLDY    61  50  67 W13G20    29.81S
BIG FORK       PTCLDY    54  45  71 W3        29.81R
LONGVILLE      PTCLDY    52  48  87 CALM      29.84F
GRAND RAPIDS   CLEAR     57  45  62 W6        29.81F
CRANE LAKE     MOCLDY    55  48  76 W3        29.76S
ORR            CLEAR     55  45  67 CALM      29.74S
COOK           CLOUDY    55  46  71 W5        29.77S
WALKER         CLOUDY    53  47  82 W6        29.85S
$$
MNZ012-019>021-037-030900-
   Northeast Minnesota

CITY           SKY/WX    TMP DP  RH WIND       PRES   REMARKS
DULUTH         CLEAR     57  46  66 W10       29.79S
ELY            CLEAR     52  46  82 CALM      29.75S
HIBBING        CLEAR     54  44  69 W5        29.79S
EVELETH        CLEAR     57  45  62 W6        29.79S
DULUTH HARBOR  CLEAR     61  52  72 SW7       29.79R
TWO HARBORS    PTCLDY    55  50  82 W3        29.75S
SILVER BAY     CLEAR     54  46  76 CALM      29.73F
GRAND MARAIS     N/A     47  43  86 W3        29.70S
G MARAIS ARPRT   N/A     55  45  67 W3        29.72S
$$
MNZ029>031-032-039>041-046>048-054>057-064-030900-
   West Central Minnesota

CITY           SKY/WX    TMP DP  RH WIND       PRES   REMARKS
FERGUS FALLS   CLEAR     54  48  82 CALM      29.91R
WHEATON        CLEAR     55  52  88 W7        29.93F
MORRIS         CLEAR     54  52  94 W5        29.91S
ALEXANDRIA     CLEAR     60  51  72 W9        29.92R
ELBOW LAKE     FAIR      55  49  81 W5        29.91S
WADENA         CLEAR     54  48  82 W6        29.89R
GLENWOOD       CLEAR     55  50  82 W7        29.91S
APPLETON       CLEAR     55  52  88 W5        29.92S
BENSON         CLEAR     54  48  82 CALM      29.92S
ORTONVILLE     CLEAR     57  52  82 NW3       29.92F
MADISON        CLEAR     55  52  88 W5        29.92F
WILLMAR        FAIR      55  52  88 W5        29.93R
$$
MNZ033>034-036-042>043-049>051-058-059-030900-
   Central Minnesota

CITY           SKY/WX    TMP DP  RH WIND       PRES   REMARKS
ST CLOUD       CLEAR     52  50  93 S3        29.87S
SAUK CENTRE    FAIR      55  51  86 W3        29.90S
PAYNESVILLE    CLEAR     49  49  97 SW6       29.91R
AITKIN         CLEAR     55  48  76 W5        29.83S
PINE RIVER     CLEAR     54  48  82 CALM      29.90R
BRAINERD       CLEAR     50  48  93 S5        29.86S
STAPLES        CLEAR     52  48  87 W6        29.88S
LONG PRAIRIE   FAIR      59  50  72 W5        29.90S
LITTLE FALLS     N/A     48  46  93 CALM      29.88S
LITCHFIELD     CLEAR     61  55  82 W3        29.90S
BUFFALO        CLEAR     60  53  77 W6        29.89S
MAPLE LAKE     CLEAR     59  55  88 W6        29.89S
$$
MNZ037-044-045-052-053-030900-
   East Central Minnesota

CITY           SKY/WX    TMP DP  RH WIND       PRES   REMARKS
PRINCETON      CLEAR     54  50  87 CALM      29.87S
MORA           CLEAR     55  48  76 W3        29.87S
CAMBRIDGE      CLEAR     61  48  63 CALM      29.85S
RUSH CITY      CLOUDY    55  49  82 W5        29.86R
MOOSE LAKE     CLEAR     52  46  82 W5        29.81S
HINCKLEY       FAIR      54  50  87 W6        29.84S
CLOQUET        CLEAR     55  45  67 W8        29.81R
MCGREGOR       CLEAR     55  48  76 W5        29.84S
$$
MNZ071>073-080-081-089-090-097-098-030900-
   Southwest Minnesota

CITY           SKY/WX    TMP DP  RH WIND       PRES   REMARKS
MONTEVIDEO     CLEAR     57  52  82 NW5       29.93F
GRANITE FALLS  CLEAR     53  52  95 SW5       29.93F
CANBY          CLEAR     58  54  84 SW6       29.94S
MARSHALL       CLEAR     55  48  76 W6        29.94S
REDWOOD FALLS  CLEAR     59  52  77 W3        29.91S
OLIVIA         CLEAR     52  48  87 W5        29.91S
PIPESTONE      CLEAR     61  55  82 CALM      29.96S
WINDOM         CLEAR     57  54  88 CALM      29.95R
WORTHINGTON    CLEAR     57  52  82 N6        29.95F
JACKSON        CLEAR     59  55  88 NW3       29.96R
TRACY          CLEAR     59  54  82 W5        29.95S
SLAYTON        CLEAR     56  55  95 CALM      29.96S
$$
MNZ065>067-074>077-082>085-091>093-030900-
   South Central Minnesota

CITY           SKY/WX    TMP DP  RH WIND       PRES   REMARKS
MANKATO        CLEAR     59  50  72 W5        29.90S
NEW ULM        CLEAR     57  55  94 CALM      29.91F
ST JAMES         N/A     59  55  88 W5        29.93S
FAIRMONT       CLEAR     61  52  72 NW5       29.93R
GLENCOE        CLEAR     57  54  87 W3        29.89F
FARIBAULT      CLEAR     59  54  82 NW5       29.89S
OWATONNA       CLEAR     54  50  87 CALM      29.90R
WASECA         CLEAR     54  52  94 NW3       29.91S
ALBERT LEA     CLEAR     59  55  88 CALM      29.91R
$$
MNZ078>079-086>088-094>096-030900-
   Southeast Minnesota

CITY           SKY/WX    TMP DP  RH WIND       PRES   REMARKS
ROCHESTER      CLEAR     57  53  86 NW8       29.89S
RED WING       CLEAR     55  54  94 CALM      29.85S
STANTON        CLEAR     58  53  84 CALM      29.86F
DODGE CENTER   PTCLDY    61  52  72 NW8       29.89S
WINONA         CLEAR     61  54  77 N5        29.85S
AUSTIN         CLEAR     61  54  77 NW5       29.90R
PRESTON        CLEAR     56  53  88 NW6       29.88S
$$
ABBREVIATIONS USED IN REMARKS
   TC - TEMPERATURES IN CELSIUS
  WCI - WIND CHILL INDEX
   HX - HEAT INDEX
  VSB - VISIBILITY
$$



USA.gov is the U.S. government's official web portal to all federal, state and local government web resources and services.